Year,Month,Day,Hour,Minute,Value (Times are PST for barometer in hPa)
2012,01,20,00,00,1006.27
2012,01,20,00,01,1006.27
2012,01,20,00,02,1006.27
2012,01,20,00,03,1006.27
2012,01,20,00,04,1006.27
2012,01,20,00,05,1006.27
2012,01,20,00,06,1006.27
2012,01,20,00,07,1006.27
2012,01,20,00,08,1006.27
2012,01,20,00,09,1006.27
2012,01,20,00,10,1006.27
2012,01,20,00,11,1006.27
2012,01,20,00,12,1006.27
2012,01,20,00,13,1006.27
2012,01,20,00,14,1006.27
2012,01,20,00,15,1006.39
2012,01,20,00,16,1006.40
2012,01,20,00,17,1006.40
2012,01,20,00,18,1006.40
2012,01,20,00,19,1006.40
2012,01,20,00,20,1006.40
2012,01,20,00,21,1006.40
2012,01,20,00,22,1006.40
2012,01,20,00,23,1006.40
2012,01,20,00,24,1006.40
2012,01,20,00,25,1006.40
2012,01,20,00,26,1006.40
2012,01,20,00,27,1006.40
2012,01,20,00,28,1006.40
2012,01,20,00,29,1006.40
2012,01,20,00,30,1006.21
2012,01,20,00,31,1006.20
2012,01,20,00,32,1006.20
2012,01,20,00,33,1006.20
2012,01,20,00,34,1006.20
2012,01,20,00,35,1006.20
2012,01,20,00,36,1006.20
2012,01,20,00,37,1006.20
2012,01,20,00,38,1006.20
2012,01,20,00,39,1006.20
2012,01,20,00,40,1006.20
2012,01,20,00,41,1006.20
2012,01,20,00,42,1006.20
2012,01,20,00,43,1006.20
2012,01,20,00,44,1006.20
2012,01,20,00,45,1006.16
2012,01,20,00,46,1006.16
2012,01,20,00,47,1006.16
2012,01,20,00,48,1006.16
2012,01,20,00,49,1006.16
2012,01,20,00,50,1006.16
2012,01,20,00,51,1006.16
2012,01,20,00,52,1006.16
2012,01,20,00,53,1006.16
2012,01,20,00,54,1006.16
2012,01,20,00,55,1006.16
2012,01,20,00,56,1006.16
2012,01,20,00,57,1006.16
2012,01,20,00,58,1006.16
2012,01,20,00,59,1006.16
2012,01,20,01,00,1006.20
2012,01,20,01,01,1006.20
2012,01,20,01,02,1006.20
2012,01,20,01,03,1006.20
2012,01,20,01,04,1006.20
2012,01,20,01,05,1006.20
2012,01,20,01,06,1006.20
2012,01,20,01,07,1006.20
2012,01,20,01,08,1006.20
2012,01,20,01,09,1006.20
2012,01,20,01,10,1006.20
2012,01,20,01,11,1006.20
2012,01,20,01,12,1006.20
2012,01,20,01,13,1006.20
2012,01,20,01,14,1006.20
2012,01,20,01,15,1006.23
2012,01,20,01,16,1006.23
2012,01,20,01,17,1006.23
2012,01,20,01,18,1006.23
2012,01,20,01,19,1006.23
2012,01,20,01,20,1006.23
2012,01,20,01,21,1006.23
2012,01,20,01,22,1006.23
2012,01,20,01,23,1006.23
2012,01,20,01,24,1006.23
2012,01,20,01,25,1006.23
2012,01,20,01,26,1006.23
2012,01,20,01,27,1006.23
2012,01,20,01,28,1006.23
2012,01,20,01,29,1006.23
2012,01,20,01,30,1006.20
2012,01,20,01,31,1006.20
2012,01,20,01,32,1006.20
2012,01,20,01,33,1006.20
2012,01,20,01,34,1006.20
2012,01,20,01,35,1006.20
2012,01,20,01,36,1006.20
2012,01,20,01,37,1006.20
2012,01,20,01,38,1006.20
2012,01,20,01,39,1006.20
2012,01,20,01,40,1006.20
2012,01,20,01,41,1006.20
2012,01,20,01,42,1006.20
2012,01,20,01,43,1006.20
2012,01,20,01,44,1006.20
2012,01,20,01,45,1006.20
2012,01,20,01,46,1006.20
2012,01,20,01,47,1006.20
2012,01,20,01,48,1006.20
2012,01,20,01,49,1006.20
2012,01,20,01,50,1006.20
2012,01,20,01,51,1006.20
2012,01,20,01,52,1006.20
2012,01,20,01,53,1006.20
2012,01,20,01,54,1006.20
2012,01,20,01,55,1006.20
2012,01,20,01,56,1006.20
2012,01,20,01,57,1006.20
2012,01,20,01,58,1006.20
2012,01,20,01,59,1006.20
2012,01,20,02,00,1006.13
2012,01,20,02,01,1006.13
2012,01,20,02,02,1006.13
2012,01,20,02,03,1006.13
2012,01,20,02,04,1006.13
2012,01,20,02,05,1006.13
2012,01,20,02,06,1006.13
2012,01,20,02,07,1006.13
2012,01,20,02,08,1006.13
2012,01,20,02,09,1006.13
2012,01,20,02,10,1006.13
2012,01,20,02,11,1006.13
2012,01,20,02,12,1006.13
2012,01,20,02,13,1006.13
2012,01,20,02,14,1006.13
2012,01,20,02,15,1005.93
2012,01,20,02,16,1005.93
2012,01,20,02,17,1005.93
2012,01,20,02,18,1005.93
2012,01,20,02,19,1005.93
2012,01,20,02,20,1005.93
2012,01,20,02,21,1005.93
2012,01,20,02,22,1005.93
2012,01,20,02,23,1005.93
2012,01,20,02,24,1005.93
2012,01,20,02,25,1005.93
2012,01,20,02,26,1005.93
2012,01,20,02,27,1005.93
2012,01,20,02,28,1005.93
2012,01,20,02,29,1005.93
2012,01,20,02,30,1005.72
2012,01,20,02,31,1005.72
2012,01,20,02,32,1005.72
2012,01,20,02,33,1005.72
2012,01,20,02,34,1005.72
2012,01,20,02,35,1005.72
2012,01,20,02,36,1005.72
2012,01,20,02,37,1005.72
2012,01,20,02,38,1005.72
2012,01,20,02,39,1005.72
2012,01,20,02,40,1005.72
2012,01,20,02,41,1005.72
2012,01,20,02,42,1005.72
2012,01,20,02,43,1005.72
2012,01,20,02,44,1005.72
2012,01,20,02,45,1005.79
2012,01,20,02,46,1005.79
2012,01,20,02,47,1005.79
2012,01,20,02,48,1005.79
2012,01,20,02,49,1005.79
2012,01,20,02,50,1005.79
2012,01,20,02,51,1005.79
2012,01,20,02,52,1005.79
2012,01,20,02,53,1005.79
2012,01,20,02,54,1005.79
2012,01,20,02,55,1005.79
2012,01,20,02,56,1005.79
2012,01,20,02,57,1005.79
2012,01,20,02,58,1005.79
2012,01,20,02,59,1005.79
2012,01,20,03,00,1005.76
2012,01,20,03,01,1005.76
2012,01,20,03,02,1005.76
2012,01,20,03,03,1005.76
2012,01,20,03,04,1005.76
2012,01,20,03,05,1005.76
2012,01,20,03,06,1005.76
2012,01,20,03,07,1005.76
2012,01,20,03,08,1005.76
2012,01,20,03,09,1005.76
2012,01,20,03,10,1005.76
2012,01,20,03,11,1005.76
2012,01,20,03,12,1005.76
2012,01,20,03,13,1005.76
2012,01,20,03,14,1005.76
2012,01,20,03,15,1005.69
2012,01,20,03,16,1005.69
2012,01,20,03,17,1005.69
2012,01,20,03,18,1005.69
2012,01,20,03,19,1005.69
2012,01,20,03,20,1005.69
2012,01,20,03,21,1005.69
2012,01,20,03,22,1005.69
2012,01,20,03,23,1005.69
2012,01,20,03,24,1005.69
2012,01,20,03,25,1005.69
2012,01,20,03,26,1005.69
2012,01,20,03,27,1005.69
2012,01,20,03,28,1005.69
2012,01,20,03,29,1005.69
2012,01,20,03,30,1005.62
2012,01,20,03,31,1005.62
2012,01,20,03,32,1005.62
2012,01,20,03,33,1005.62
2012,01,20,03,34,1005.62
2012,01,20,03,35,1005.62
2012,01,20,03,36,1005.62
2012,01,20,03,37,1005.62
2012,01,20,03,38,1005.62
2012,01,20,03,39,1005.62
2012,01,20,03,40,1005.62
2012,01,20,03,41,1005.62
2012,01,20,03,42,1005.62
2012,01,20,03,43,1005.62
2012,01,20,03,44,1005.62
2012,01,20,03,45,1005.69
2012,01,20,03,46,1005.69
2012,01,20,03,47,1005.69
2012,01,20,03,48,1005.69
2012,01,20,03,49,1005.69
2012,01,20,03,50,1005.69
2012,01,20,03,51,1005.69
2012,01,20,03,52,1005.69
2012,01,20,03,53,1005.69
2012,01,20,03,54,1005.69
2012,01,20,03,55,1005.69
2012,01,20,03,56,1005.69
2012,01,20,03,57,1005.69
2012,01,20,03,58,1005.69
2012,01,20,03,59,1005.69
2012,01,20,04,00,1005.22
2012,01,20,04,01,1005.22
2012,01,20,04,02,1005.22
2012,01,20,04,03,1005.22
2012,01,20,04,04,1005.22
2012,01,20,04,05,1005.22
2012,01,20,04,06,1005.22
2012,01,20,04,07,1005.22
2012,01,20,04,08,1005.22
2012,01,20,04,09,1005.22
2012,01,20,04,10,1005.22
2012,01,20,04,11,1005.22
2012,01,20,04,12,1005.22
2012,01,20,04,13,1005.22
2012,01,20,04,14,1005.22
2012,01,20,04,15,1005.22
2012,01,20,04,16,1005.22
2012,01,20,04,17,1005.22
2012,01,20,04,18,1005.22
2012,01,20,04,19,1005.22
2012,01,20,04,20,1005.22
2012,01,20,04,21,1005.22
2012,01,20,04,22,1005.22
2012,01,20,04,23,1005.22
2012,01,20,04,24,1005.22
2012,01,20,04,25,1005.22
2012,01,20,04,26,1005.22
2012,01,20,04,27,1005.22
2012,01,20,04,28,1005.22
2012,01,20,04,29,1005.22
2012,01,20,04,30,1004.84
2012,01,20,04,31,1004.84
2012,01,20,04,32,1004.84
2012,01,20,04,33,1004.84
2012,01,20,04,34,1004.84
2012,01,20,04,35,1004.84
2012,01,20,04,36,1004.84
2012,01,20,04,37,1004.84
2012,01,20,04,38,1004.84
2012,01,20,04,39,1004.84
2012,01,20,04,40,1004.84
2012,01,20,04,41,1004.84
2012,01,20,04,42,1004.84
2012,01,20,04,43,1004.84
2012,01,20,04,44,1004.84
2012,01,20,04,45,1005.11
2012,01,20,04,46,1005.11
2012,01,20,04,47,1005.11
2012,01,20,04,48,1005.11
2012,01,20,04,49,1005.11
2012,01,20,04,50,1005.11
2012,01,20,04,51,1005.11
2012,01,20,04,52,1005.11
2012,01,20,04,53,1005.11
2012,01,20,04,54,1005.11
2012,01,20,04,55,1005.11
2012,01,20,04,56,1005.11
2012,01,20,04,57,1005.11
2012,01,20,04,58,1005.11
2012,01,20,04,59,1005.11
2012,01,20,05,00,1005.11
2012,01,20,05,01,1005.11
2012,01,20,05,02,1005.11
2012,01,20,05,03,1005.11
2012,01,20,05,04,1005.11
2012,01,20,05,05,1005.11
2012,01,20,05,06,1005.11
2012,01,20,05,07,1005.11
2012,01,20,05,08,1005.11
2012,01,20,05,09,1005.11
2012,01,20,05,10,1005.11
2012,01,20,05,11,1005.11
2012,01,20,05,12,1005.11
2012,01,20,05,13,1005.11
2012,01,20,05,14,1005.11
2012,01,20,05,15,1004.74
2012,01,20,05,16,1004.74
2012,01,20,05,17,1004.74
2012,01,20,05,18,1004.74
2012,01,20,05,19,1004.74
2012,01,20,05,20,1004.74
2012,01,20,05,21,1004.74
2012,01,20,05,22,1004.74
2012,01,20,05,23,1004.74
2012,01,20,05,24,1004.74
2012,01,20,05,25,1004.74
2012,01,20,05,26,1004.74
2012,01,20,05,27,1004.74
2012,01,20,05,28,1004.74
2012,01,20,05,29,1004.74
2012,01,20,05,30,1004.57
2012,01,20,05,31,1004.57
2012,01,20,05,32,1004.57
2012,01,20,05,33,1004.57
2012,01,20,05,34,1004.57
2012,01,20,05,35,1004.57
2012,01,20,05,36,1004.57
2012,01,20,05,37,1004.57
2012,01,20,05,38,1004.57
2012,01,20,05,39,1004.57
2012,01,20,05,40,1004.57
2012,01,20,05,41,1004.57
2012,01,20,05,42,1004.57
2012,01,20,05,43,1004.57
2012,01,20,05,44,1004.57
2012,01,20,05,45,1004.30
2012,01,20,05,46,1004.30
2012,01,20,05,47,1004.30
2012,01,20,05,48,1004.30
2012,01,20,05,49,1004.30
2012,01,20,05,50,1004.30
2012,01,20,05,51,1004.30
2012,01,20,05,52,1004.30
2012,01,20,05,53,1004.30
2012,01,20,05,54,1004.30
2012,01,20,05,55,1004.30
2012,01,20,05,56,1004.30
2012,01,20,05,57,1004.30
2012,01,20,05,58,1004.30
2012,01,20,05,59,1004.30
2012,01,20,06,00,1004.10
2012,01,20,06,01,1004.10
2012,01,20,06,02,1004.10
2012,01,20,06,03,1004.10
2012,01,20,06,04,1004.10
2012,01,20,06,05,1004.10
2012,01,20,06,06,1004.10
2012,01,20,06,07,1004.10
2012,01,20,06,08,1004.10
2012,01,20,06,09,1004.10
2012,01,20,06,10,1004.10
2012,01,20,06,11,1004.10
2012,01,20,06,12,1004.10
2012,01,20,06,13,1004.10
2012,01,20,06,14,1004.10
2012,01,20,06,15,1003.87
2012,01,20,06,16,1003.86
2012,01,20,06,17,1003.86
2012,01,20,06,18,1003.86
2012,01,20,06,19,1003.86
2012,01,20,06,20,1003.86
2012,01,20,06,21,1003.86
2012,01,20,06,22,1003.86
2012,01,20,06,23,1003.86
2012,01,20,06,24,1003.86
2012,01,20,06,25,1003.86
2012,01,20,06,26,1003.86
2012,01,20,06,27,1003.86
2012,01,20,06,28,1003.86
2012,01,20,06,29,1003.86
2012,01,20,06,30,1003.54
2012,01,20,06,31,1003.52
2012,01,20,06,32,1003.52
2012,01,20,06,33,1003.52
2012,01,20,06,34,1003.52
2012,01,20,06,35,1003.52
2012,01,20,06,36,1003.52
2012,01,20,06,37,1003.52
2012,01,20,06,38,1003.52
2012,01,20,06,39,1003.52
2012,01,20,06,40,1003.52
2012,01,20,06,41,1003.52
2012,01,20,06,42,1003.52
2012,01,20,06,43,1003.52
2012,01,20,06,44,1003.52
2012,01,20,06,45,1003.14
2012,01,20,06,46,1003.12
2012,01,20,06,47,1003.12
2012,01,20,06,48,1003.12
2012,01,20,06,49,1003.12
2012,01,20,06,50,1003.12
2012,01,20,06,51,1003.12
2012,01,20,06,52,1003.12
2012,01,20,06,53,1003.12
2012,01,20,06,54,1003.12
2012,01,20,06,55,1003.12
2012,01,20,06,56,1003.12
2012,01,20,06,57,1003.12
2012,01,20,06,58,1003.12
2012,01,20,06,59,1003.12
2012,01,20,07,00,1003.05
2012,01,20,07,01,1003.05
2012,01,20,07,02,1003.05
2012,01,20,07,03,1003.05
2012,01,20,07,04,1003.05
2012,01,20,07,05,1003.05
2012,01,20,07,06,1003.05
2012,01,20,07,07,1003.05
2012,01,20,07,08,1003.05
2012,01,20,07,09,1003.05
2012,01,20,07,10,1003.05
2012,01,20,07,11,1003.05
2012,01,20,07,12,1003.05
2012,01,20,07,13,1003.05
2012,01,20,07,14,1003.05
2012,01,20,07,15,1002.57
2012,01,20,07,16,1002.54
2012,01,20,07,17,1002.54
2012,01,20,07,18,1002.54
2012,01,20,07,19,1002.54
2012,01,20,07,20,1002.54
2012,01,20,07,21,1002.54
2012,01,20,07,22,1002.54
2012,01,20,07,23,1002.54
2012,01,20,07,24,1002.54
2012,01,20,07,25,1002.54
2012,01,20,07,26,1002.54
2012,01,20,07,27,1002.54
2012,01,20,07,28,1002.54
2012,01,20,07,29,1002.54
2012,01,20,07,30,1002.06
2012,01,20,07,31,1002.03
2012,01,20,07,32,1002.03
2012,01,20,07,33,1002.03
2012,01,20,07,34,1002.03
2012,01,20,07,35,1002.03
2012,01,20,07,36,1002.03
2012,01,20,07,37,1002.03
2012,01,20,07,38,1002.03
2012,01,20,07,39,1002.03
2012,01,20,07,40,1002.03
2012,01,20,07,41,1002.03
2012,01,20,07,42,1002.03
2012,01,20,07,43,1002.03
2012,01,20,07,44,1002.03
2012,01,20,07,45,1001.97
2012,01,20,07,46,1001.97
2012,01,20,07,47,1001.97
2012,01,20,07,48,1001.97
2012,01,20,07,49,1001.97
2012,01,20,07,50,1001.97
2012,01,20,07,51,1001.97
2012,01,20,07,52,1001.97
2012,01,20,07,53,1001.97
2012,01,20,07,54,1001.97
2012,01,20,07,55,1001.97
2012,01,20,07,56,1001.97
2012,01,20,07,57,1001.97
2012,01,20,07,58,1001.97
2012,01,20,07,59,1001.97
2012,01,20,08,00,1001.49
2012,01,20,08,01,1001.46
2012,01,20,08,02,1001.46
2012,01,20,08,03,1001.46
2012,01,20,08,04,1001.46
2012,01,20,08,05,1001.46
2012,01,20,08,06,1001.46
2012,01,20,08,07,1001.46
2012,01,20,08,08,1001.46
2012,01,20,08,09,1001.46
2012,01,20,08,10,1001.46
2012,01,20,08,11,1001.46
2012,01,20,08,12,1001.46
2012,01,20,08,13,1001.46
2012,01,20,08,14,1001.46
2012,01,20,08,15,1001.32
2012,01,20,08,16,1001.32
2012,01,20,08,17,1001.32
2012,01,20,08,18,1001.32
2012,01,20,08,19,1001.32
2012,01,20,08,20,1001.32
2012,01,20,08,21,1001.32
2012,01,20,08,22,1001.32
2012,01,20,08,23,1001.32
2012,01,20,08,24,1001.32
2012,01,20,08,25,1001.32
2012,01,20,08,26,1001.32
2012,01,20,08,27,1001.32
2012,01,20,08,28,1001.32
2012,01,20,08,29,1001.32
2012,01,20,08,30,1001.05
2012,01,20,08,31,1001.05
2012,01,20,08,32,1001.05
2012,01,20,08,33,1001.05
2012,01,20,08,34,1001.05
2012,01,20,08,35,1001.05
2012,01,20,08,36,1001.05
2012,01,20,08,37,1001.05
2012,01,20,08,38,1001.05
2012,01,20,08,39,1001.05
2012,01,20,08,40,1001.05
2012,01,20,08,41,1001.05
2012,01,20,08,42,1001.05
2012,01,20,08,43,1001.05
2012,01,20,08,44,1001.05
2012,01,20,08,45,1001.02
2012,01,20,08,46,1001.02
2012,01,20,08,47,1001.02
2012,01,20,08,48,1001.02
2012,01,20,08,49,1001.02
2012,01,20,08,50,1001.02
2012,01,20,08,51,1001.02
2012,01,20,08,52,1001.02
2012,01,20,08,53,1001.02
2012,01,20,08,54,1001.02
2012,01,20,08,55,1001.02
2012,01,20,08,56,1001.02
2012,01,20,08,57,1001.02
2012,01,20,08,58,1001.02
2012,01,20,08,59,1001.02
2012,01,20,09,00,1000.64
2012,01,20,09,01,1000.64
2012,01,20,09,02,1000.64
2012,01,20,09,03,1000.64
2012,01,20,09,04,1000.64
2012,01,20,09,05,1000.64
2012,01,20,09,06,1000.64
2012,01,20,09,07,1000.64
2012,01,20,09,08,1000.64
2012,01,20,09,09,1000.64
2012,01,20,09,10,1000.64
2012,01,20,09,11,1000.64
2012,01,20,09,12,1000.64
2012,01,20,09,13,1000.64
2012,01,20,09,14,1000.64
2012,01,20,09,15,1000.27
2012,01,20,09,16,1000.27
2012,01,20,09,17,1000.27
2012,01,20,09,18,1000.27
2012,01,20,09,19,1000.27
2012,01,20,09,20,1000.27
2012,01,20,09,21,1000.27
2012,01,20,09,22,1000.27
2012,01,20,09,23,1000.27
2012,01,20,09,24,1000.27
2012,01,20,09,25,1000.27
2012,01,20,09,26,1000.27
2012,01,20,09,27,1000.27
2012,01,20,09,28,1000.27
2012,01,20,09,29,1000.27
2012,01,20,09,30,999.95
2012,01,20,09,31,999.93
2012,01,20,09,32,999.93
2012,01,20,09,33,999.93
2012,01,20,09,34,999.93
2012,01,20,09,35,999.93
2012,01,20,09,36,999.93
2012,01,20,09,37,999.93
2012,01,20,09,38,999.93
2012,01,20,09,39,999.93
2012,01,20,09,40,999.93
2012,01,20,09,41,999.93
2012,01,20,09,42,999.93
2012,01,20,09,43,999.93
2012,01,20,09,44,999.93
2012,01,20,09,45,999.87
2012,01,20,09,46,999.87
2012,01,20,09,47,999.87
2012,01,20,09,48,999.87
2012,01,20,09,49,999.87
2012,01,20,09,50,999.87
2012,01,20,09,51,999.87
2012,01,20,09,52,999.87
2012,01,20,09,53,999.87
2012,01,20,09,54,999.87
2012,01,20,09,55,999.87
2012,01,20,09,56,999.87
2012,01,20,09,57,999.87
2012,01,20,09,58,999.87
2012,01,20,09,59,999.87
2012,01,20,10,00,999.80
2012,01,20,10,01,999.80
2012,01,20,10,02,999.80
2012,01,20,10,03,999.80
2012,01,20,10,04,999.80
2012,01,20,10,05,999.80
2012,01,20,10,06,999.80
2012,01,20,10,07,999.80
2012,01,20,10,08,999.80
2012,01,20,10,09,999.80
2012,01,20,10,10,999.80
2012,01,20,10,11,999.80
2012,01,20,10,12,999.80
2012,01,20,10,13,999.80
2012,01,20,10,14,999.80
2012,01,20,10,15,999.41
2012,01,20,10,16,999.39
2012,01,20,10,17,999.39
2012,01,20,10,18,999.39
2012,01,20,10,19,999.39
2012,01,20,10,20,999.39
2012,01,20,10,21,999.39
2012,01,20,10,22,999.39
2012,01,20,10,23,999.39
2012,01,20,10,24,999.39
2012,01,20,10,25,999.39
2012,01,20,10,26,999.39
2012,01,20,10,27,999.39
2012,01,20,10,28,999.39
2012,01,20,10,29,999.39
2012,01,20,10,30,999.12
2012,01,20,10,31,999.12
2012,01,20,10,32,999.12
2012,01,20,10,33,999.12
2012,01,20,10,34,999.12
2012,01,20,10,35,999.12
2012,01,20,10,36,999.12
2012,01,20,10,37,999.12
2012,01,20,10,38,999.12
2012,01,20,10,39,999.12
2012,01,20,10,40,999.12
2012,01,20,10,41,999.12
2012,01,20,10,42,999.12
2012,01,20,10,43,999.12
2012,01,20,10,44,999.12
2012,01,20,10,45,998.44
2012,01,20,10,46,998.41
2012,01,20,10,47,998.41
2012,01,20,10,48,998.41
2012,01,20,10,49,998.41
2012,01,20,10,50,998.41
2012,01,20,10,51,998.41
2012,01,20,10,52,998.41
2012,01,20,10,53,998.41
2012,01,20,10,54,998.41
2012,01,20,10,55,998.41
2012,01,20,10,56,998.41
2012,01,20,10,57,998.41
2012,01,20,10,58,998.41
2012,01,20,10,59,998.41
2012,01,20,11,00,998.07
2012,01,20,11,01,998.07
2012,01,20,11,02,998.07
2012,01,20,11,03,998.07
2012,01,20,11,04,998.07
2012,01,20,11,05,998.07
2012,01,20,11,06,998.07
2012,01,20,11,07,998.07
2012,01,20,11,08,998.07
2012,01,20,11,09,998.07
2012,01,20,11,10,998.07
2012,01,20,11,11,998.07
2012,01,20,11,12,998.07
2012,01,20,11,13,998.07
2012,01,20,11,14,998.07
2012,01,20,11,15,997.36
2012,01,20,11,16,997.33
2012,01,20,11,17,997.33
2012,01,20,11,18,997.33
2012,01,20,11,19,997.33
2012,01,20,11,20,997.33
2012,01,20,11,21,997.33
2012,01,20,11,22,997.33
2012,01,20,11,23,997.33
2012,01,20,11,24,997.33
2012,01,20,11,25,997.33
2012,01,20,11,26,997.33
2012,01,20,11,27,997.33
2012,01,20,11,28,997.33
2012,01,20,11,29,997.33
2012,01,20,11,30,996.81
2012,01,20,11,31,996.78
2012,01,20,11,32,996.78
2012,01,20,11,33,996.78
2012,01,20,11,34,996.78
2012,01,20,11,35,996.78
2012,01,20,11,36,996.78
2012,01,20,11,37,996.78
2012,01,20,11,38,996.78
2012,01,20,11,39,996.78
2012,01,20,11,40,996.78
2012,01,20,11,41,996.78
2012,01,20,11,42,996.78
2012,01,20,11,43,996.78
2012,01,20,11,44,996.78
2012,01,20,11,45,996.33
2012,01,20,11,46,996.31
2012,01,20,11,47,996.31
2012,01,20,11,48,996.31
2012,01,20,11,49,996.31
2012,01,20,11,50,996.31
2012,01,20,11,51,996.31
2012,01,20,11,52,996.31
2012,01,20,11,53,996.31
2012,01,20,11,54,996.31
2012,01,20,11,55,996.31
2012,01,20,11,56,996.31
2012,01,20,11,57,996.31
2012,01,20,11,58,996.31
2012,01,20,11,59,996.31
2012,01,20,12,00,996.11
2012,01,20,12,01,996.11
2012,01,20,12,02,996.11
2012,01,20,12,03,996.11
2012,01,20,12,04,996.11
2012,01,20,12,05,996.11
2012,01,20,12,06,996.11
2012,01,20,12,07,996.11
2012,01,20,12,08,996.11
2012,01,20,12,09,996.11
2012,01,20,12,10,996.11
2012,01,20,12,11,996.11
2012,01,20,12,12,996.11
2012,01,20,12,13,996.11
2012,01,20,12,14,996.11
2012,01,20,12,15,995.63
2012,01,20,12,16,995.63
2012,01,20,12,17,995.63
2012,01,20,12,18,995.63
2012,01,20,12,19,995.63
2012,01,20,12,20,995.63
2012,01,20,12,21,995.63
2012,01,20,12,22,995.63
2012,01,20,12,23,995.63
2012,01,20,12,24,995.63
2012,01,20,12,25,995.63
2012,01,20,12,26,995.63
2012,01,20,12,27,995.63
2012,01,20,12,28,995.63
2012,01,20,12,29,995.63
2012,01,20,12,30,994.83
2012,01,20,12,31,994.79
2012,01,20,12,32,994.79
2012,01,20,12,33,994.79
2012,01,20,12,34,994.79
2012,01,20,12,35,994.79
2012,01,20,12,36,994.79
2012,01,20,12,37,994.79
2012,01,20,12,38,994.79
2012,01,20,12,39,994.79
2012,01,20,12,40,994.79
2012,01,20,12,41,994.79
2012,01,20,12,42,994.79
2012,01,20,12,43,994.79
2012,01,20,12,44,994.79
2012,01,20,12,45,994.79
2012,01,20,12,46,994.79
2012,01,20,12,47,994.79
2012,01,20,12,48,994.79
2012,01,20,12,49,994.79
2012,01,20,12,50,994.79
2012,01,20,12,51,994.79
2012,01,20,12,52,994.79
2012,01,20,12,53,994.79
2012,01,20,12,54,994.79
2012,01,20,12,55,994.79
2012,01,20,12,56,994.79
2012,01,20,12,57,994.79
2012,01,20,12,58,994.79
2012,01,20,12,59,994.79
2012,01,20,13,00,994.01
2012,01,20,13,01,993.97
2012,01,20,13,02,993.97
2012,01,20,13,03,993.97
2012,01,20,13,04,993.97
2012,01,20,13,05,993.97
2012,01,20,13,06,993.97
2012,01,20,13,07,993.97
2012,01,20,13,08,993.97
2012,01,20,13,09,993.97
2012,01,20,13,10,993.97
2012,01,20,13,11,993.97
2012,01,20,13,12,993.97
2012,01,20,13,13,993.97
2012,01,20,13,14,993.97
2012,01,20,13,15,993.20
2012,01,20,13,16,993.16
2012,01,20,13,17,993.16
2012,01,20,13,18,993.16
2012,01,20,13,19,993.16
2012,01,20,13,20,993.16
2012,01,20,13,21,993.16
2012,01,20,13,22,993.16
2012,01,20,13,23,993.16
2012,01,20,13,24,993.16
2012,01,20,13,25,993.16
2012,01,20,13,26,993.16
2012,01,20,13,27,993.16
2012,01,20,13,28,993.16
2012,01,20,13,29,993.16
2012,01,20,13,30,992.93
2012,01,20,13,31,992.92
2012,01,20,13,32,992.92
2012,01,20,13,33,992.92
2012,01,20,13,34,992.92
2012,01,20,13,35,992.92
2012,01,20,13,36,992.92
2012,01,20,13,37,992.92
2012,01,20,13,38,992.92
2012,01,20,13,39,992.92
2012,01,20,13,40,992.92
2012,01,20,13,41,992.92
2012,01,20,13,42,992.92
2012,01,20,13,43,992.92
2012,01,20,13,44,992.92
2012,01,20,13,45,992.62
2012,01,20,13,46,992.62
2012,01,20,13,47,992.62
2012,01,20,13,48,992.62
2012,01,20,13,49,992.62
2012,01,20,13,50,992.62
2012,01,20,13,51,992.62
2012,01,20,13,52,992.62
2012,01,20,13,53,992.62
2012,01,20,13,54,992.62
2012,01,20,13,55,992.62
2012,01,20,13,56,992.62
2012,01,20,13,57,992.62
2012,01,20,13,58,992.62
2012,01,20,13,59,992.62
2012,01,20,14,00,991.65
2012,01,20,14,01,991.60
2012,01,20,14,02,991.60
2012,01,20,14,03,991.60
2012,01,20,14,04,991.60
2012,01,20,14,05,991.60
2012,01,20,14,06,991.60
2012,01,20,14,07,991.60
2012,01,20,14,08,991.60
2012,01,20,14,09,991.60
2012,01,20,14,10,991.60
2012,01,20,14,11,991.60
2012,01,20,14,12,991.60
2012,01,20,14,13,991.60
2012,01,20,14,14,991.60
2012,01,20,14,15,991.06
2012,01,20,14,16,991.03
2012,01,20,14,17,991.03
2012,01,20,14,18,991.03
2012,01,20,14,19,991.03
2012,01,20,14,20,991.03
2012,01,20,14,21,991.03
2012,01,20,14,22,991.03
2012,01,20,14,23,991.03
2012,01,20,14,24,991.03
2012,01,20,14,25,991.03
2012,01,20,14,26,991.03
2012,01,20,14,27,991.03
2012,01,20,14,28,991.03
2012,01,20,14,29,991.03
2012,01,20,14,30,990.86
2012,01,20,14,31,990.86
2012,01,20,14,32,990.86
2012,01,20,14,33,990.86
2012,01,20,14,34,990.86
2012,01,20,14,35,990.86
2012,01,20,14,36,990.86
2012,01,20,14,37,990.86
2012,01,20,14,38,990.86
2012,01,20,14,39,990.86
2012,01,20,14,40,990.86
2012,01,20,14,41,990.86
2012,01,20,14,42,990.86
2012,01,20,14,43,990.86
2012,01,20,14,44,990.86
2012,01,20,14,45,990.54
2012,01,20,14,46,990.52
2012,01,20,14,47,990.52
2012,01,20,14,48,990.52
2012,01,20,14,49,990.52
2012,01,20,14,50,990.52
2012,01,20,14,51,990.52
2012,01,20,14,52,990.52
2012,01,20,14,53,990.52
2012,01,20,14,54,990.52
2012,01,20,14,55,990.52
2012,01,20,14,56,990.52
2012,01,20,14,57,990.52
2012,01,20,14,58,990.52
2012,01,20,14,59,990.52
2012,01,20,15,00,989.98
2012,01,20,15,01,989.98
2012,01,20,15,02,989.98
2012,01,20,15,03,989.98
2012,01,20,15,04,989.98
2012,01,20,15,05,989.98
2012,01,20,15,06,989.98
2012,01,20,15,07,989.98
2012,01,20,15,08,989.98
2012,01,20,15,09,989.98
2012,01,20,15,10,989.98
2012,01,20,15,11,989.98
2012,01,20,15,12,989.98
2012,01,20,15,13,989.98
2012,01,20,15,14,989.98
2012,01,20,15,15,989.49
2012,01,20,15,16,989.47
2012,01,20,15,17,989.47
2012,01,20,15,18,989.47
2012,01,20,15,19,989.47
2012,01,20,15,20,989.47
2012,01,20,15,21,989.47
2012,01,20,15,22,989.47
2012,01,20,15,23,989.47
2012,01,20,15,24,989.47
2012,01,20,15,25,989.47
2012,01,20,15,26,989.47
2012,01,20,15,27,989.47
2012,01,20,15,28,989.47
2012,01,20,15,29,989.47
2012,01,20,15,30,988.89
2012,01,20,15,31,988.86
2012,01,20,15,32,988.86
2012,01,20,15,33,988.86
2012,01,20,15,34,988.86
2012,01,20,15,35,988.86
2012,01,20,15,36,988.86
2012,01,20,15,37,988.86
2012,01,20,15,38,988.86
2012,01,20,15,39,988.86
2012,01,20,15,40,988.86
2012,01,20,15,41,988.86
2012,01,20,15,42,988.86
2012,01,20,15,43,988.86
2012,01,20,15,44,988.86
2012,01,20,15,45,987.88
2012,01,20,15,46,987.88
2012,01,20,15,47,987.88
2012,01,20,15,48,987.88
2012,01,20,15,49,987.88
2012,01,20,15,50,987.88
2012,01,20,15,51,987.88
2012,01,20,15,52,987.88
2012,01,20,15,53,987.88
2012,01,20,15,54,987.88
2012,01,20,15,55,987.88
2012,01,20,15,56,987.88
2012,01,20,15,57,987.88
2012,01,20,15,58,987.88
2012,01,20,15,59,987.88
2012,01,20,16,00,987.40
2012,01,20,16,01,987.37
2012,01,20,16,02,987.37
2012,01,20,16,03,987.37
2012,01,20,16,04,987.37
2012,01,20,16,05,987.37
2012,01,20,16,06,987.37
2012,01,20,16,07,987.37
2012,01,20,16,08,987.37
2012,01,20,16,09,987.37
2012,01,20,16,10,987.37
2012,01,20,16,11,987.37
2012,01,20,16,12,987.37